Time,TemperatureF,DewpointF,PressureIn,WindDirection,WindDirectionDegrees,WindSpeedMPH,WindSpeedGustMPH,Humidity,HourlyPrecipIn,Conditions,Clouds,dailyrainin,SoftwareType,DateUTC
2013-12-24 00:02:00,22.1,11.1,31.81,West,270,3.0,4.0,62,0.00,,,0.00,meteohub,2013-12-24 07:02:00,
2013-12-24 00:07:00,22.3,11.3,31.82,West,270,4.0,4.0,62,0.00,,,0.00,meteohub,2013-12-24 07:07:00,
2013-12-24 00:12:00,22.3,11.3,31.81,SW,225,1.0,4.0,62,0.00,,,0.00,meteohub,2013-12-24 07:12:00,
2013-12-24 00:17:00,22.5,11.5,31.81,South,180,2.0,4.0,62,0.00,,,0.00,meteohub,2013-12-24 07:17:00,
2013-12-24 00:22:00,22.3,10.9,31.80,West,270,3.0,4.0,61,0.00,,,0.00,meteohub,2013-12-24 07:22:00,
2013-12-24 00:27:00,22.5,11.1,31.80,West,270,1.0,4.0,61,0.00,,,0.00,meteohub,2013-12-24 07:27:00,
2013-12-24 00:32:00,22.6,11.3,31.80,West,270,2.0,4.0,61,0.00,,,0.00,meteohub,2013-12-24 07:32:00,
2013-12-24 01:23:00,23.0,11.1,31.78,SW,225,3.0,4.0,60,0.00,,,0.00,meteohub,2013-12-24 08:23:00,
2013-12-24 01:28:00,23.2,11.3,31.78,SW,225,0.0,4.0,60,0.00,,,0.00,meteohub,2013-12-24 08:28:00,
2013-12-24 01:34:00,23.4,11.5,31.78,NW,315,4.0,4.0,60,0.00,,,0.00,meteohub,2013-12-24 08:34:00,
2013-12-24 01:39:00,23.5,11.3,31.78,SW,225,2.0,4.0,59,0.00,,,0.00,meteohub,2013-12-24 08:39:00,
2013-12-24 01:44:00,23.5,11.7,31.78,West,270,2.0,4.0,60,0.00,,,0.00,meteohub,2013-12-24 08:44:00,
2013-12-24 01:49:00,23.7,11.5,31.78,West,270,4.0,4.0,59,0.00,,,0.00,meteohub,2013-12-24 08:49:00,
2013-12-24 01:54:00,24.1,11.8,31.78,SW,225,0.0,4.0,59,0.00,,,0.00,meteohub,2013-12-24 08:54:00,
2013-12-24 01:59:00,24.1,11.8,31.78,SW,225,2.0,4.0,59,0.00,,,0.00,meteohub,2013-12-24 08:59:00,
2013-12-24 02:05:00,24.1,11.8,31.77,SE,135,0.0,4.0,59,0.00,,,0.00,meteohub,2013-12-24 09:05:00,
2013-12-24 02:10:00,24.3,12.0,31.77,NE,45,0.0,3.0,59,0.00,,,0.00,meteohub,2013-12-24 09:10:00,
2013-12-24 02:15:00,24.3,12.0,31.77,WSW,248,3.0,5.0,59,0.00,,,0.00,meteohub,2013-12-24 09:15:00,
2013-12-24 02:20:00,24.1,11.8,31.77,West,270,4.0,5.0,59,0.00,,,0.00,meteohub,2013-12-24 09:20:00,
2013-12-24 02:25:00,24.1,11.8,31.77,NW,315,2.0,4.0,59,0.00,,,0.00,meteohub,2013-12-24 09:25:00,
2013-12-24 02:30:00,24.1,11.8,31.77,West,270,2.0,4.0,59,0.00,,,0.00,meteohub,2013-12-24 09:30:00,
2013-12-24 02:36:00,23.9,11.7,31.77,NW,315,6.0,6.0,59,0.00,,,0.00,meteohub,2013-12-24 09:36:00,
2013-12-24 02:41:00,24.1,11.8,31.77,North,0,3.0,6.0,59,0.00,,,0.00,meteohub,2013-12-24 09:41:00,
2013-12-24 02:46:00,24.3,12.0,31.78,East,90,2.0,6.0,59,0.00,,,0.00,meteohub,2013-12-24 09:46:00,
2013-12-24 02:51:00,24.3,12.0,31.78,East,90,2.0,6.0,59,0.00,,,0.00,meteohub,2013-12-24 09:51:00,
2013-12-24 02:56:00,24.3,12.4,31.78,NE,45,2.0,4.0,60,0.00,,,0.00,meteohub,2013-12-24 09:56:00,
2013-12-24 03:02:00,24.4,12.6,31.78,West,270,3.0,4.0,60,0.00,,,0.00,meteohub,2013-12-24 10:02:00,
2013-12-24 03:07:00,24.4,12.6,31.78,West,270,3.0,8.0,60,0.00,,,0.00,meteohub,2013-12-24 10:07:00,
2013-12-24 03:12:00,25.0,12.4,31.78,West,270,9.0,9.0,58,0.00,,,0.00,meteohub,2013-12-24 10:12:00,
2013-12-24 03:17:00,25.0,12.4,31.78,SW,225,5.0,9.0,58,0.00,,,0.00,meteohub,2013-12-24 10:17:00,
2013-12-24 03:22:00,25.0,12.7,31.78,North,0,5.0,9.0,59,0.00,,,0.00,meteohub,2013-12-24 10:22:00,
2013-12-24 03:27:00,25.0,13.1,31.78,South,180,4.0,9.0,60,0.00,,,0.00,meteohub,2013-12-24 10:27:00,
2013-12-24 03:32:00,25.0,13.8,31.78,SW,225,9.0,9.0,62,0.00,,,0.00,meteohub,2013-12-24 10:32:00,
2013-12-24 03:37:00,24.8,13.6,31.77,SE,135,4.0,9.0,62,0.00,,,0.00,meteohub,2013-12-24 10:37:00,
2013-12-24 03:42:00,24.8,14.0,31.77,SE,135,5.0,10.0,63,0.00,,,0.00,meteohub,2013-12-24 10:42:00,
2013-12-24 03:47:00,24.8,14.0,31.78,West,270,2.0,10.0,63,0.00,,,0.00,meteohub,2013-12-24 10:47:00,
2013-12-24 03:52:00,24.8,14.0,31.78,SE,135,4.0,10.0,63,0.00,,,0.00,meteohub,2013-12-24 10:52:00,
2013-12-24 03:57:00,24.8,14.4,31.77,ENE,68,2.0,8.0,64,0.00,,,0.00,meteohub,2013-12-24 10:57:00,
2013-12-24 04:02:00,24.8,14.4,31.77,SE,135,4.0,8.0,64,0.00,,,0.00,meteohub,2013-12-24 11:02:00,
2013-12-24 04:07:00,24.8,14.4,31.77,North,0,2.0,8.0,64,0.00,,,0.00,meteohub,2013-12-24 11:07:00,
2013-12-24 04:12:00,24.8,14.4,31.77,North,0,2.0,8.0,64,0.00,,,0.00,meteohub,2013-12-24 11:12:00,
2013-12-24 04:17:00,24.8,14.7,31.77,NW,315,3.0,7.0,65,0.00,,,0.00,meteohub,2013-12-24 11:17:00,
2013-12-24 04:22:00,24.8,14.7,31.77,NW,315,3.0,8.0,65,0.00,,,0.00,meteohub,2013-12-24 11:22:00,
2013-12-24 04:27:00,24.8,14.7,31.77,NE,45,6.0,8.0,65,0.00,,,0.00,meteohub,2013-12-24 11:27:00,
2013-12-24 04:32:00,24.8,14.7,31.76,SW,225,4.0,8.0,65,0.00,,,0.00,meteohub,2013-12-24 11:32:00,
2013-12-24 04:37:00,24.8,14.7,31.76,SE,135,3.0,8.0,65,0.00,,,0.00,meteohub,2013-12-24 11:37:00,
2013-12-24 04:42:00,24.8,14.4,31.76,NW,315,4.0,10.0,64,0.00,,,0.00,meteohub,2013-12-24 11:42:00,
2013-12-24 04:47:00,24.8,14.4,31.76,West,270,2.0,10.0,64,0.00,,,0.00,meteohub,2013-12-24 11:47:00,
2013-12-24 04:52:00,24.8,14.4,31.76,NE,45,4.0,8.0,64,0.00,,,0.00,meteohub,2013-12-24 11:52:00,
2013-12-24 04:57:00,24.8,14.4,31.76,SW,225,3.0,8.0,64,0.00,,,0.00,meteohub,2013-12-24 11:57:00,
2013-12-24 05:02:00,24.8,14.4,31.76,NE,45,4.0,8.0,64,0.00,,,0.00,meteohub,2013-12-24 12:02:00,
2013-12-24 05:07:00,24.8,14.4,31.76,NE,45,4.0,8.0,64,0.00,,,0.00,meteohub,2013-12-24 12:07:00,
2013-12-24 05:12:00,24.6,14.5,31.76,West,270,3.0,4.0,65,0.00,,,0.00,meteohub,2013-12-24 12:12:00,
2013-12-24 05:17:00,24.4,14.7,31.76,NE,45,6.0,8.0,66,0.00,,,0.00,meteohub,2013-12-24 12:17:00,
2013-12-24 05:22:00,24.1,15.1,31.75,SE,135,2.0,8.0,68,0.00,,,0.00,meteohub,2013-12-24 12:22:00,
2013-12-24 05:27:00,23.7,15.1,31.76,SW,225,2.0,8.0,69,0.00,,,0.00,meteohub,2013-12-24 12:27:00,
2013-12-24 05:32:00,23.5,14.9,31.76,SE,135,2.0,6.0,69,0.00,,,0.00,meteohub,2013-12-24 12:32:00,
2013-12-24 05:37:00,23.4,14.7,31.76,South,180,0.0,3.0,69,0.00,,,0.00,meteohub,2013-12-24 12:37:00,
2013-12-24 05:42:00,23.0,14.4,31.76,West,270,2.0,3.0,69,0.00,,,0.00,meteohub,2013-12-24 12:42:00,
2013-12-24 05:47:00,22.6,14.4,31.75,West,270,3.0,3.0,70,0.00,,,0.00,meteohub,2013-12-24 12:47:00,
2013-12-24 05:52:00,22.5,14.2,31.75,SE,135,2.0,4.0,70,0.00,,,0.00,meteohub,2013-12-24 12:52:00,
2013-12-24 05:57:00,22.5,14.2,31.75,NW,315,3.0,4.0,70,0.00,,,0.00,meteohub,2013-12-24 12:57:00,
2013-12-24 06:02:00,22.6,14.4,31.76,South,180,4.0,4.0,70,0.00,,,0.00,meteohub,2013-12-24 13:02:00,
2013-12-24 06:07:00,23.0,14.4,31.75,West,270,2.0,5.0,69,0.00,,,0.00,meteohub,2013-12-24 13:07:00,
2013-12-24 06:12:00,23.0,14.4,31.75,West,270,2.0,5.0,69,0.00,,,0.00,meteohub,2013-12-24 13:12:00,
2013-12-24 06:17:00,23.4,14.7,31.75,East,90,4.0,5.0,69,0.00,,,0.00,meteohub,2013-12-24 13:17:00,
2013-12-24 06:22:00,23.5,14.9,31.75,SW,225,1.0,5.0,69,0.00,,,0.00,meteohub,2013-12-24 13:22:00,
2013-12-24 06:27:00,23.4,14.4,31.75,North,0,1.0,5.0,68,0.00,,,0.00,meteohub,2013-12-24 13:27:00,
2013-12-24 06:32:00,23.2,14.2,31.75,East,90,3.0,5.0,68,0.00,,,0.00,meteohub,2013-12-24 13:32:00,
2013-12-24 06:37:00,23.4,14.4,31.75,South,180,2.0,3.0,68,0.00,,,0.00,meteohub,2013-12-24 13:37:00,
2013-12-24 06:42:00,23.2,14.2,31.75,NW,315,1.0,3.0,68,0.00,,,0.00,meteohub,2013-12-24 13:42:00,
2013-12-24 06:47:00,22.6,13.6,31.75,SW,225,5.0,5.0,68,0.00,,,0.00,meteohub,2013-12-24 13:47:00,
2013-12-24 06:52:00,22.3,13.3,31.74,NE,45,4.0,5.0,68,0.00,,,0.00,meteohub,2013-12-24 13:52:00,
2013-12-24 06:57:00,22.5,13.8,31.75,South,180,1.0,5.0,69,0.00,,,0.00,meteohub,2013-12-24 13:57:00,
2013-12-24 07:02:00,22.5,13.8,31.74,South,180,1.0,5.0,69,0.00,,,0.00,meteohub,2013-12-24 14:02:00,
2013-12-24 07:07:00,22.5,13.8,31.74,South,180,1.0,5.0,69,0.00,,,0.00,meteohub,2013-12-24 14:07:00,
2013-12-24 07:12:00,23.0,14.4,31.74,SE,135,2.0,3.0,69,0.00,,,0.00,meteohub,2013-12-24 14:12:00,
2013-12-24 07:17:00,23.4,14.7,31.74,East,90,2.0,3.0,69,0.00,,,0.00,meteohub,2013-12-24 14:17:00,
2013-12-24 07:22:00,23.5,14.9,31.74,NE,45,2.0,4.0,69,0.00,,,0.00,meteohub,2013-12-24 14:22:00,
2013-12-24 07:27:00,23.5,14.9,31.74,SW,225,1.0,4.0,69,0.00,,,0.00,meteohub,2013-12-24 14:27:00,
2013-12-24 07:32:00,23.5,14.9,31.73,South,180,0.0,4.0,69,0.00,,,0.00,meteohub,2013-12-24 14:32:00,
2013-12-24 07:37:00,24.1,15.4,31.73,South,180,2.0,3.0,69,0.00,,,0.00,meteohub,2013-12-24 14:37:00,
2013-12-24 07:42:00,24.4,15.4,31.73,East,90,5.0,11.0,68,0.00,,,0.00,meteohub,2013-12-24 14:42:00,
2013-12-24 07:47:00,24.6,15.6,31.74,South,180,2.0,11.0,68,0.00,,,0.00,meteohub,2013-12-24 14:47:00,
2013-12-24 07:52:00,25.0,15.3,31.73,NE,45,2.0,5.0,66,0.00,,,0.00,meteohub,2013-12-24 14:52:00,
2013-12-24 07:57:00,25.5,15.8,31.73,West,270,1.0,5.0,66,0.00,,,0.00,meteohub,2013-12-24 14:57:00,
2013-12-24 08:02:00,25.5,15.4,31.73,South,180,2.0,5.0,65,0.00,,,0.00,meteohub,2013-12-24 15:02:00,
2013-12-24 08:07:00,25.5,15.4,31.73,South,180,2.0,5.0,65,0.00,,,0.00,meteohub,2013-12-24 15:07:00,
2013-12-24 08:12:00,25.5,15.4,31.72,East,90,2.0,3.0,65,0.00,,,0.00,meteohub,2013-12-24 15:12:00,
2013-12-24 08:17:00,25.5,15.1,31.72,East,90,0.0,4.0,64,0.00,,,0.00,meteohub,2013-12-24 15:17:00,
2013-12-24 08:22:00,25.7,15.3,31.73,NE,45,4.0,4.0,64,0.00,,,0.00,meteohub,2013-12-24 15:22:00,
2013-12-24 08:27:00,25.7,15.3,31.73,SE,135,0.0,4.0,64,0.00,,,0.00,meteohub,2013-12-24 15:27:00,
2013-12-24 08:32:00,26.1,15.6,31.72,SE,135,2.0,4.0,64,0.00,,,0.00,meteohub,2013-12-24 15:32:00,
2013-12-24 08:37:00,26.4,15.6,31.72,South,180,2.0,4.0,63,0.00,,,0.00,meteohub,2013-12-24 15:37:00,
2013-12-24 08:42:00,26.8,15.4,31.72,SW,225,4.0,4.0,62,0.00,,,0.00,meteohub,2013-12-24 15:42:00,
2013-12-24 08:47:00,27.3,15.3,31.72,SW,225,3.0,4.0,60,0.00,,,0.00,meteohub,2013-12-24 15:47:00,
2013-12-24 08:52:00,29.8,16.9,31.72,West,270,7.0,7.0,58,0.00,,,0.00,meteohub,2013-12-24 15:52:00,
2013-12-24 08:57:00,32.4,15.8,31.72,SW,225,5.0,12.0,50,0.00,,,0.00,meteohub,2013-12-24 15:57:00,
2013-12-24 09:02:00,33.6,15.6,31.72,WSW,248,6.0,12.0,47,0.00,,,0.00,meteohub,2013-12-24 16:02:00,
2013-12-24 09:07:00,33.6,15.6,31.72,WSW,248,6.0,12.0,47,0.00,,,0.00,meteohub,2013-12-24 16:07:00,
2013-12-24 09:12:00,35.8,13.3,31.72,West,270,4.0,10.0,39,0.00,,,0.00,meteohub,2013-12-24 16:12:00,
2013-12-24 09:17:00,35.6,12.6,31.72,SW,225,8.0,10.0,38,0.00,,,0.00,meteohub,2013-12-24 16:17:00,
2013-12-24 09:22:00,36.3,12.6,31.72,SW,225,4.0,11.0,37,0.00,,,0.00,meteohub,2013-12-24 16:22:00,
2013-12-24 09:27:00,37.0,9.9,31.72,NW,315,6.0,15.0,32,0.00,,,0.00,meteohub,2013-12-24 16:27:00,
2013-12-24 09:32:00,37.0,9.1,31.72,ENE,68,16.0,16.0,31,0.00,,,0.00,meteohub,2013-12-24 16:32:00,
2013-12-24 09:37:00,36.9,7.5,31.72,West,270,11.0,20.0,29,0.00,,,0.00,meteohub,2013-12-24 16:37:00,
2013-12-24 09:42:00,37.2,9.3,31.72,West,270,13.0,20.0,31,0.00,,,0.00,meteohub,2013-12-24 16:42:00,
2013-12-24 09:47:00,37.2,9.3,31.72,West,270,21.0,21.0,31,0.00,,,0.00,meteohub,2013-12-24 16:47:00,
2013-12-24 09:52:00,37.0,9.1,31.72,NW,315,14.0,21.0,31,0.00,,,0.00,meteohub,2013-12-24 16:52:00,
2013-12-24 09:57:00,37.2,10.8,31.73,NW,315,12.0,21.0,33,0.00,,,0.00,meteohub,2013-12-24 16:57:00,
2013-12-24 10:02:00,37.0,11.8,31.72,NW,315,18.0,21.0,35,0.00,,,0.00,meteohub,2013-12-24 17:02:00,
2013-12-24 10:07:00,36.1,9.1,31.73,SW,225,11.0,21.0,32,0.00,,,0.00,meteohub,2013-12-24 17:07:00,
2013-12-24 10:12:00,35.8,8.8,31.72,West,270,14.0,21.0,32,0.00,,,0.00,meteohub,2013-12-24 17:12:00,
2013-12-24 10:17:00,35.8,9.5,31.73,West,270,8.0,21.0,33,0.00,,,0.00,meteohub,2013-12-24 17:17:00,
2013-12-24 10:22:00,36.0,12.7,31.73,WNW,293,15.0,21.0,38,0.00,,,0.00,meteohub,2013-12-24 17:22:00,
2013-12-24 10:27:00,36.1,13.6,31.72,West,270,8.0,18.0,39,0.00,,,0.00,meteohub,2013-12-24 17:27:00,
2013-12-24 10:32:00,36.1,14.7,31.71,WNW,293,6.0,15.0,41,0.00,,,0.00,meteohub,2013-12-24 17:32:00,
2013-12-24 10:37:00,36.5,15.1,31.71,NW,315,5.0,15.0,41,0.00,,,0.00,meteohub,2013-12-24 17:37:00,
2013-12-24 10:42:00,36.7,15.3,31.71,West,270,4.0,9.0,41,0.00,,,0.00,meteohub,2013-12-24 17:42:00,
2013-12-24 10:47:00,36.9,15.4,31.71,NW,315,3.0,9.0,41,0.00,,,0.00,meteohub,2013-12-24 17:47:00,
2013-12-24 10:52:00,37.4,18.0,31.71,SE,135,4.0,7.0,45,0.00,,,0.00,meteohub,2013-12-24 17:52:00,
2013-12-24 10:57:00,37.4,18.0,31.71,West,270,4.0,5.0,45,0.00,,,0.00,meteohub,2013-12-24 17:57:00,
2013-12-24 11:02:00,37.4,18.5,31.71,West,270,4.0,7.0,46,0.00,,,0.00,meteohub,2013-12-24 18:02:00,
2013-12-24 11:07:00,37.4,18.5,31.71,West,270,4.0,7.0,46,0.00,,,0.00,meteohub,2013-12-24 18:07:00,
2013-12-24 11:12:00,35.8,16.0,31.71,West,270,4.0,7.0,44,0.00,,,0.00,meteohub,2013-12-24 18:12:00,
2013-12-24 11:17:00,35.6,18.3,31.71,South,180,2.0,6.0,49,0.00,,,0.00,meteohub,2013-12-24 18:17:00,
2013-12-24 11:22:00,34.7,18.9,31.71,NE,45,3.0,6.0,52,0.00,,,0.00,meteohub,2013-12-24 18:22:00,
2013-12-24 11:27:00,33.8,18.9,31.72,NW,315,3.0,6.0,54,0.00,,,0.00,meteohub,2013-12-24 18:27:00,
2013-12-24 11:32:00,34.2,19.8,31.71,North,0,4.0,7.0,55,0.00,,,0.00,meteohub,2013-12-24 18:32:00,
2013-12-24 11:37:00,35.8,20.3,31.70,WSW,248,4.0,7.0,53,0.00,,,0.00,meteohub,2013-12-24 18:37:00,
2013-12-24 11:42:00,37.4,21.9,31.70,NW,315,4.0,7.0,53,0.00,,,0.00,meteohub,2013-12-24 18:42:00,
2013-12-24 11:47:00,37.4,18.5,31.70,SW,225,8.0,8.0,46,0.00,,,0.00,meteohub,2013-12-24 18:47:00,
2013-12-24 11:52:00,37.0,14.4,31.70,NW,315,8.0,9.0,39,0.00,,,0.00,meteohub,2013-12-24 18:52:00,
2013-12-24 11:57:00,37.2,13.3,31.70,West,270,6.0,9.0,37,0.00,,,0.00,meteohub,2013-12-24 18:57:00,
2013-12-24 12:02:00,36.9,13.6,31.70,West,270,5.0,9.0,38,0.00,,,0.00,meteohub,2013-12-24 19:02:00,
2013-12-24 12:07:00,37.8,17.2,31.69,NW,315,4.0,8.0,43,0.00,,,0.00,meteohub,2013-12-24 19:07:00,
2013-12-24 12:12:00,38.8,17.8,31.69,NW,315,4.0,8.0,42,0.00,,,0.00,meteohub,2013-12-24 19:12:00,
2013-12-24 12:17:00,37.9,15.8,31.69,NW,315,6.0,8.0,40,0.00,,,0.00,meteohub,2013-12-24 19:17:00,
2013-12-24 12:22:00,36.5,12.7,31.69,West,270,8.0,10.0,37,0.00,,,0.00,meteohub,2013-12-24 19:22:00,
2013-12-24 12:27:00,35.4,14.0,31.69,West,270,4.0,10.0,41,0.00,,,0.00,meteohub,2013-12-24 19:27:00,
2013-12-24 12:32:00,34.3,13.6,31.68,NW,315,7.0,8.0,42,0.00,,,0.00,meteohub,2013-12-24 19:32:00,
2013-12-24 12:37:00,34.0,13.8,31.69,NW,315,5.0,11.0,43,0.00,,,0.00,meteohub,2013-12-24 19:37:00,
2013-12-24 12:42:00,34.3,15.3,31.68,West,270,5.0,11.0,45,0.00,,,0.00,meteohub,2013-12-24 19:42:00,
2013-12-24 12:47:00,35.4,16.2,31.68,NE,45,3.0,11.0,45,0.00,,,0.00,meteohub,2013-12-24 19:47:00,
2013-12-24 12:52:00,35.1,15.3,31.69,WNW,293,7.0,8.0,44,0.00,,,0.00,meteohub,2013-12-24 19:52:00,
2013-12-24 12:57:00,33.6,16.0,31.69,NW,315,4.0,7.0,48,0.00,,,0.00,meteohub,2013-12-24 19:57:00,
2013-12-24 13:02:00,32.5,16.3,31.69,West,270,4.0,8.0,51,0.00,,,0.00,meteohub,2013-12-24 20:02:00,
2013-12-24 13:07:00,32.5,16.3,31.69,West,270,4.0,8.0,51,0.00,,,0.00,meteohub,2013-12-24 20:07:00,
2013-12-24 13:12:00,30.9,18.0,31.69,West,270,4.0,5.0,58,0.00,,,0.00,meteohub,2013-12-24 20:12:00,
2013-12-24 13:17:00,30.6,17.6,31.68,NW,315,2.0,4.0,58,0.00,,,0.00,meteohub,2013-12-24 20:17:00,
2013-12-24 13:22:00,30.6,17.6,31.68,North,0,2.0,4.0,58,0.00,,,0.00,meteohub,2013-12-24 20:22:00,
2013-12-24 13:27:00,30.6,17.6,31.68,NE,45,4.0,4.0,58,0.00,,,0.00,meteohub,2013-12-24 20:27:00,
2013-12-24 13:32:00,30.6,18.0,31.68,North,0,3.0,4.0,59,0.00,,,0.00,meteohub,2013-12-24 20:32:00,
2013-12-24 13:37:00,30.2,18.0,31.68,North,0,3.0,4.0,60,0.00,,,0.00,meteohub,2013-12-24 20:37:00,
2013-12-24 13:42:00,29.1,18.1,31.69,WNW,293,3.0,6.0,63,0.00,,,0.00,meteohub,2013-12-24 20:42:00,
2013-12-24 13:47:00,27.3,16.3,31.69,West,270,6.0,6.0,63,0.00,,,0.00,meteohub,2013-12-24 20:47:00,
2013-12-24 13:52:00,26.6,16.7,31.69,NW,315,4.0,6.0,66,0.00,,,0.00,meteohub,2013-12-24 20:52:00,
2013-12-24 13:57:00,26.2,17.4,31.69,West,270,4.0,6.0,69,0.00,,,0.00,meteohub,2013-12-24 20:57:00,
2013-12-24 14:02:00,26.4,18.0,31.69,NW,315,3.0,6.0,70,0.00,,,0.00,meteohub,2013-12-24 21:02:00,
2013-12-24 14:07:00,26.2,17.8,31.69,NW,315,2.0,6.0,70,0.00,,,0.00,meteohub,2013-12-24 21:07:00,
2013-12-24 14:12:00,26.2,17.4,31.70,NW,315,6.0,7.0,69,0.00,,,0.00,meteohub,2013-12-24 21:12:00,
2013-12-24 14:17:00,25.7,16.5,31.70,NW,315,5.0,7.0,68,0.00,,,0.00,meteohub,2013-12-24 21:17:00,
2013-12-24 14:22:00,25.2,16.2,31.70,NW,315,6.0,7.0,68,0.00,,,0.00,meteohub,2013-12-24 21:22:00,
2013-12-24 14:27:00,24.6,16.2,31.70,West,270,5.0,11.0,70,0.00,,,0.00,meteohub,2013-12-24 21:27:00,
2013-12-24 14:32:00,24.4,16.0,31.70,North,0,3.0,11.0,70,0.00,,,0.00,meteohub,2013-12-24 21:32:00,
2013-12-24 14:37:00,24.4,16.0,31.71,NW,315,7.0,8.0,70,0.00,,,0.00,meteohub,2013-12-24 21:37:00,
2013-12-24 14:42:00,24.3,16.0,31.71,NW,315,10.0,10.0,70,0.00,,,0.00,meteohub,2013-12-24 21:42:00,
2013-12-24 14:47:00,23.7,15.4,31.71,SW,225,4.0,11.0,70,0.00,,,0.00,meteohub,2013-12-24 21:47:00,
2013-12-24 14:52:00,23.7,15.1,31.71,NW,315,6.0,11.0,69,0.00,,,0.00,meteohub,2013-12-24 21:52:00,
2013-12-24 14:57:00,23.7,14.0,31.72,West,270,4.0,11.0,66,0.00,,,0.00,meteohub,2013-12-24 21:57:00,
2013-12-24 15:02:00,23.5,13.1,31.73,NW,315,8.0,11.0,64,0.00,,,0.00,meteohub,2013-12-24 22:02:00,
2013-12-24 15:07:00,23.5,13.1,31.73,NW,315,8.0,9.0,64,0.00,,,0.00,meteohub,2013-12-24 22:07:00,
2013-12-24 15:12:00,21.9,10.9,31.73,NW,315,6.0,9.0,62,0.00,,,0.00,meteohub,2013-12-24 22:12:00,
2013-12-24 15:17:00,21.4,10.8,31.73,NW,315,4.0,8.0,63,0.00,,,0.00,meteohub,2013-12-24 22:17:00,
2013-12-24 15:22:00,21.0,11.1,31.73,SE,135,5.0,8.0,65,0.00,,,0.00,meteohub,2013-12-24 22:22:00,
2013-12-24 15:27:00,20.7,10.8,31.73,North,0,3.0,11.0,65,0.00,,,0.00,meteohub,2013-12-24 22:27:00,
2013-12-24 15:32:00,20.7,10.4,31.73,East,90,4.0,11.0,64,0.00,,,0.00,meteohub,2013-12-24 22:32:00,
2013-12-24 15:37:00,20.5,10.2,31.73,North,0,6.0,11.0,64,0.00,,,0.00,meteohub,2013-12-24 22:37:00,
2013-12-24 15:42:00,20.1,9.5,31.74,North,0,5.0,10.0,63,0.00,,,0.00,meteohub,2013-12-24 22:42:00,
2013-12-24 15:47:00,20.1,9.5,31.74,North,0,5.0,10.0,63,0.00,,,0.00,meteohub,2013-12-24 22:47:00,
2013-12-24 15:52:00,20.3,9.3,31.74,North,0,4.0,10.0,62,0.00,,,0.00,meteohub,2013-12-24 22:52:00,
2013-12-24 15:57:00,20.3,9.3,31.75,North,0,4.0,8.0,62,0.00,,,0.00,meteohub,2013-12-24 22:57:00,
2013-12-24 16:02:00,20.1,8.8,31.75,West,270,4.0,8.0,61,0.00,,,0.00,meteohub,2013-12-24 23:02:00,
2013-12-24 16:07:00,19.8,8.1,31.75,NW,315,5.0,8.0,60,0.00,,,0.00,meteohub,2013-12-24 23:07:00,
2013-12-24 16:12:00,19.4,7.7,31.75,NW,315,4.0,8.0,60,0.00,,,0.00,meteohub,2013-12-24 23:12:00,
2013-12-24 16:17:00,19.2,6.4,31.76,North,0,2.0,8.0,57,0.00,,,0.00,meteohub,2013-12-24 23:17:00,
2013-12-24 16:22:00,18.9,6.4,31.76,North,0,4.0,8.0,58,0.00,,,0.00,meteohub,2013-12-24 23:22:00,
2013-12-24 16:27:00,18.1,6.3,31.76,NW,315,8.0,8.0,59,0.00,,,0.00,meteohub,2013-12-24 23:27:00,
2013-12-24 16:32:00,17.6,6.1,31.76,North,0,6.0,8.0,60,0.00,,,0.00,meteohub,2013-12-24 23:32:00,
2013-12-24 16:37:00,17.2,6.4,31.76,West,270,2.0,8.0,62,0.00,,,0.00,meteohub,2013-12-24 23:37:00,
2013-12-24 16:42:00,16.9,6.1,31.76,NE,45,4.0,8.0,62,0.00,,,0.00,meteohub,2013-12-24 23:42:00,
2013-12-24 16:47:00,16.7,6.3,31.76,NW,315,8.0,8.0,63,0.00,,,0.00,meteohub,2013-12-24 23:47:00,
2013-12-24 16:52:00,16.7,6.3,31.77,NW,315,5.0,9.0,63,0.00,,,0.00,meteohub,2013-12-24 23:52:00,
2013-12-24 16:57:00,16.7,6.3,31.77,NW,315,11.0,11.0,63,0.00,,,0.00,meteohub,2013-12-24 23:57:00,
2013-12-24 17:02:00,16.7,5.9,31.77,NW,315,11.0,12.0,62,0.00,,,0.00,meteohub,2013-12-25 00:02:00,
2013-12-24 17:07:00,16.7,5.9,31.77,NW,315,11.0,12.0,62,0.00,,,0.00,meteohub,2013-12-25 00:07:00,
2013-12-24 17:12:00,16.9,4.6,31.77,West,270,5.0,11.0,58,0.00,,,0.00,meteohub,2013-12-25 00:12:00,
2013-12-24 17:17:00,16.9,3.9,31.77,SW,225,8.0,11.0,56,0.00,,,0.00,meteohub,2013-12-25 00:17:00,
2013-12-24 17:22:00,16.9,3.6,31.77,WNW,293,4.0,11.0,55,0.00,,,0.00,meteohub,2013-12-25 00:22:00,
2013-12-24 17:27:00,16.7,3.4,31.77,South,180,5.0,10.0,55,0.00,,,0.00,meteohub,2013-12-25 00:27:00,
2013-12-24 17:32:00,16.3,2.7,31.77,NW,315,3.0,10.0,54,0.00,,,0.00,meteohub,2013-12-25 00:32:00,
2013-12-24 17:37:00,16.0,2.3,31.77,West,270,6.0,8.0,54,0.00,,,0.00,meteohub,2013-12-25 00:37:00,
2013-12-24 17:42:00,15.8,1.8,31.78,NW,315,4.0,6.0,53,0.00,,,0.00,meteohub,2013-12-25 00:42:00,
2013-12-24 17:47:00,15.4,1.4,31.78,West,270,5.0,6.0,53,0.00,,,0.00,meteohub,2013-12-25 00:47:00,
2013-12-24 17:52:00,15.4,1.0,31.78,SW,225,5.0,8.0,52,0.00,,,0.00,meteohub,2013-12-25 00:52:00,
2013-12-24 17:57:00,15.3,0.3,31.77,NW,315,5.0,8.0,51,0.00,,,0.00,meteohub,2013-12-25 00:57:00,
2013-12-24 18:02:00,15.3,-0.4,31.78,WNW,293,4.0,7.0,49,0.00,,,0.00,meteohub,2013-12-25 01:02:00,
2013-12-24 18:07:00,15.3,-0.9,31.78,West,270,5.0,8.0,48,0.00,,,0.00,meteohub,2013-12-25 01:07:00,
2013-12-24 18:12:00,15.3,-1.8,31.78,North,0,3.0,10.0,46,0.00,,,0.00,meteohub,2013-12-25 01:12:00,
2013-12-24 18:17:00,15.3,-1.8,31.78,NW,315,7.0,10.0,46,0.00,,,0.00,meteohub,2013-12-25 01:17:00,
2013-12-24 18:22:00,15.1,-2.0,31.78,East,90,5.0,7.0,46,0.00,,,0.00,meteohub,2013-12-25 01:22:00,
2013-12-24 18:27:00,14.9,-2.2,31.78,NW,315,11.0,11.0,46,0.00,,,0.00,meteohub,2013-12-25 01:27:00,
2013-12-24 18:32:00,14.7,-2.4,31.78,North,0,10.0,11.0,46,0.00,,,0.00,meteohub,2013-12-25 01:32:00,
2013-12-24 18:37:00,14.7,-2.4,31.79,WNW,293,6.0,11.0,46,0.00,,,0.00,meteohub,2013-12-25 01:37:00,
2013-12-24 18:42:00,14.5,-2.6,31.79,NW,315,7.0,11.0,46,0.00,,,0.00,meteohub,2013-12-25 01:42:00,
2013-12-24 18:47:00,14.2,-2.7,31.80,West,270,2.0,10.0,46,0.00,,,0.00,meteohub,2013-12-25 01:47:00,
2013-12-24 18:52:00,14.0,-2.9,31.81,West,270,3.0,8.0,46,0.00,,,0.00,meteohub,2013-12-25 01:52:00,
2013-12-24 18:57:00,13.8,-2.7,31.81,SE,135,4.0,8.0,47,0.00,,,0.00,meteohub,2013-12-25 01:57:00,
2013-12-24 19:02:00,13.6,-2.9,31.81,West,270,4.0,8.0,47,0.00,,,0.00,meteohub,2013-12-25 02:02:00,
2013-12-24 19:07:00,13.6,-2.9,31.81,West,270,4.0,6.0,47,0.00,,,0.00,meteohub,2013-12-25 02:07:00,
2013-12-24 19:12:00,12.9,-3.5,31.81,North,0,2.0,6.0,47,0.00,,,0.00,meteohub,2013-12-25 02:12:00,
2013-12-24 19:17:00,12.6,-3.5,31.81,SW,225,2.0,4.0,48,0.00,,,0.00,meteohub,2013-12-25 02:17:00,
2013-12-24 19:22:00,12.4,-3.6,31.82,East,90,2.0,7.0,48,0.00,,,0.00,meteohub,2013-12-25 02:22:00,
2013-12-24 19:27:00,11.8,-3.3,31.82,SW,225,1.0,7.0,50,0.00,,,0.00,meteohub,2013-12-25 02:27:00,
2013-12-24 19:32:00,11.3,-2.9,31.82,North,0,4.0,7.0,52,0.00,,,0.00,meteohub,2013-12-25 02:32:00,
2013-12-24 19:37:00,11.1,-1.8,31.82,SW,225,2.0,4.0,55,0.00,,,0.00,meteohub,2013-12-25 02:37:00,
2013-12-24 19:42:00,11.1,-1.5,31.82,SW,225,3.0,7.0,56,0.00,,,0.00,meteohub,2013-12-25 02:42:00,
2013-12-24 19:47:00,11.1,-0.8,31.82,NW,315,4.0,8.0,58,0.00,,,0.00,meteohub,2013-12-25 02:47:00,
2013-12-24 19:52:00,10.9,-0.9,31.82,NW,315,3.0,8.0,58,0.00,,,0.00,meteohub,2013-12-25 02:52:00,
2013-12-24 19:57:00,10.8,-1.1,31.82,NNW,338,2.0,8.0,58,0.00,,,0.00,meteohub,2013-12-25 02:57:00,
2013-12-24 20:02:00,10.6,-1.3,31.82,SW,225,2.0,6.0,58,0.00,,,0.00,meteohub,2013-12-25 03:02:00,
2013-12-24 20:07:00,10.2,-3.1,31.82,NW,315,3.0,6.0,54,0.00,,,0.00,meteohub,2013-12-25 03:07:00,
2013-12-24 20:12:00,9.9,-3.5,31.83,SE,135,1.0,4.0,54,0.00,,,0.00,meteohub,2013-12-25 03:12:00,
2013-12-24 20:17:00,9.5,-3.8,31.83,NW,315,2.0,4.0,54,0.00,,,0.00,meteohub,2013-12-25 03:17:00,
2013-12-24 20:22:00,9.3,-4.0,31.83,West,270,2.0,4.0,54,0.00,,,0.00,meteohub,2013-12-25 03:22:00,
2013-12-24 20:27:00,9.1,-4.2,31.83,SW,225,0.0,4.0,54,0.00,,,0.00,meteohub,2013-12-25 03:27:00,
2013-12-24 20:32:00,8.8,-4.5,31.83,SW,225,0.0,4.0,54,0.00,,,0.00,meteohub,2013-12-25 03:32:00,
2013-12-24 20:37:00,8.2,-4.9,31.83,SW,225,0.0,3.0,54,0.00,,,0.00,meteohub,2013-12-25 03:37:00,
2013-12-24 20:42:00,7.5,-5.6,31.83,SW,225,0.0,2.0,54,0.00,,,0.00,meteohub,2013-12-25 03:42:00,
2013-12-24 20:47:00,7.3,-5.4,31.83,NW,315,2.0,0.0,55,0.00,,,0.00,meteohub,2013-12-25 03:47:00,
2013-12-24 20:52:00,7.2,-5.6,31.83,West,270,2.0,4.0,55,0.00,,,0.00,meteohub,2013-12-25 03:52:00,
2013-12-24 20:57:00,7.2,-5.6,31.83,West,270,3.0,4.0,55,0.00,,,0.00,meteohub,2013-12-25 03:57:00,
2013-12-24 21:02:00,7.2,-5.3,31.84,SW,225,2.0,4.0,56,0.00,,,0.00,meteohub,2013-12-25 04:02:00,
2013-12-24 21:07:00,7.2,-5.3,31.83,SW,225,2.0,4.0,56,0.00,,,0.00,meteohub,2013-12-25 04:07:00,
2013-12-24 21:12:00,6.8,-5.6,31.84,SW,225,2.0,4.0,56,0.00,,,0.00,meteohub,2013-12-25 04:12:00,
2013-12-24 21:17:00,7.0,-5.4,31.83,West,270,2.0,3.0,56,0.00,,,0.00,meteohub,2013-12-25 04:17:00,
2013-12-24 21:22:00,7.0,-5.4,31.83,West,270,3.0,3.0,56,0.00,,,0.00,meteohub,2013-12-25 04:22:00,
2013-12-24 21:27:00,6.6,-5.4,31.83,West,270,3.0,4.0,57,0.00,,,0.00,meteohub,2013-12-25 04:27:00,
2013-12-24 21:32:00,6.3,-5.8,31.83,West,270,4.0,4.0,57,0.00,,,0.00,meteohub,2013-12-25 04:32:00,
2013-12-24 21:37:00,5.7,-6.2,31.83,West,270,4.0,4.0,57,0.00,,,0.00,meteohub,2013-12-25 04:37:00,
2013-12-24 21:42:00,5.4,-6.5,31.83,West,270,3.0,4.0,57,0.00,,,0.00,meteohub,2013-12-25 04:42:00,
2013-12-24 21:47:00,5.2,-6.7,31.84,West,270,3.0,4.0,57,0.00,,,0.00,meteohub,2013-12-25 04:47:00,
2013-12-24 21:52:00,5.2,-6.3,31.84,West,270,2.0,4.0,58,0.00,,,0.00,meteohub,2013-12-25 04:52:00,
2013-12-24 21:57:00,5.5,-5.6,31.84,West,270,2.0,4.0,59,0.00,,,0.00,meteohub,2013-12-25 04:57:00,
2013-12-24 22:01:00,5.4,-5.8,31.84,West,270,4.0,4.0,59,0.00,,,0.00,meteohub,2013-12-25 05:01:00,
2013-12-24 22:02:00,5.4,-5.8,31.84,West,270,3.0,4.0,59,0.00,,,0.00,meteohub,2013-12-25 05:02:00,
2013-12-24 22:03:00,5.5,-5.6,31.84,West,270,3.0,4.0,59,0.00,,,0.00,meteohub,2013-12-25 05:03:00,
2013-12-24 22:09:00,5.9,-5.1,31.84,West,270,4.0,4.0,60,0.00,,,0.00,meteohub,2013-12-25 05:09:00,
2013-12-24 22:14:00,5.9,-5.3,31.84,SW,225,3.0,4.0,59,0.00,,,0.00,meteohub,2013-12-25 05:14:00,
2013-12-24 22:19:00,5.9,-5.3,31.84,West,270,2.0,4.0,59,0.00,,,0.00,meteohub,2013-12-25 05:19:00,
2013-12-24 22:24:00,5.9,-5.3,31.84,West,270,4.0,4.0,59,0.00,,,0.00,meteohub,2013-12-25 05:24:00,
2013-12-24 22:29:00,5.7,-5.4,31.84,West,270,4.0,4.0,59,0.00,,,0.00,meteohub,2013-12-25 05:29:00,
2013-12-24 22:34:00,5.4,-6.2,31.84,West,270,3.0,4.0,58,0.00,,,0.00,meteohub,2013-12-25 05:34:00,
2013-12-24 22:40:00,5.4,-6.2,31.84,West,270,3.0,4.0,58,0.00,,,0.00,meteohub,2013-12-25 05:40:00,
2013-12-24 22:45:00,5.2,-6.3,31.84,SW,225,3.0,4.0,58,0.00,,,0.00,meteohub,2013-12-25 05:45:00,
2013-12-24 22:50:00,5.0,-6.5,31.84,West,270,2.0,4.0,58,0.00,,,0.00,meteohub,2013-12-25 05:50:00,
2013-12-24 22:55:00,4.8,-6.3,31.84,West,270,2.0,4.0,59,0.00,,,0.00,meteohub,2013-12-25 05:55:00,
2013-12-24 23:00:00,4.5,-6.7,31.84,West,270,3.0,4.0,59,0.00,,,0.00,meteohub,2013-12-25 06:00:00,
2013-12-24 23:06:00,4.5,-6.7,31.84,West,270,3.0,4.0,59,0.00,,,0.00,meteohub,2013-12-25 06:06:00,
2013-12-24 23:11:00,4.1,-7.1,31.85,North,0,2.0,3.0,59,0.00,,,0.00,meteohub,2013-12-25 06:11:00,
2013-12-24 23:16:00,3.6,-8.0,31.85,NW,315,2.0,3.0,58,0.00,,,0.00,meteohub,2013-12-25 06:16:00,
2013-12-24 23:21:00,3.2,-8.3,31.85,West,270,2.0,3.0,58,0.00,,,0.00,meteohub,2013-12-25 06:21:00,
2013-12-24 23:26:00,2.8,-8.3,31.84,West,270,2.0,3.0,59,0.00,,,0.00,meteohub,2013-12-25 06:26:00,
2013-12-24 23:31:00,2.7,-8.3,31.84,SW,225,2.0,3.0,59,0.00,,,0.00,meteohub,2013-12-25 06:31:00,
2013-12-24 23:37:00,2.7,-8.3,31.84,North,0,1.0,3.0,59,0.00,,,0.00,meteohub,2013-12-25 06:37:00,
2013-12-24 23:42:00,2.3,-8.7,31.85,NE,45,0.0,3.0,59,0.00,,,0.00,meteohub,2013-12-25 06:42:00,
2013-12-24 23:47:00,1.8,-9.2,31.85,SW,225,1.0,3.0,59,0.00,,,0.00,meteohub,2013-12-25 06:47:00,
2013-12-24 23:52:00,1.2,-11.2,31.85,West,270,0.0,2.0,55,0.00,,,0.00,meteohub,2013-12-25 06:52:00,
2013-12-24 23:57:00,0.7,-12.1,31.84,SW,225,2.0,2.0,54,0.00,,,0.00,meteohub,2013-12-25 06:57:00,